TimeEST,TemperatureF,Dew PointF,Humidity,Sea Level PressureIn,VisibilityMPH,Wind Direction,Wind SpeedMPH,Gust SpeedMPH,PrecipitationIn,Events,Conditions,WindDirDegrees,DateUTC
12:15 AM,65.3,62.2,90,30.08,10.0,South,6.9,-,N/A,,Clear,190,2013-12-06 05:15:00
12:35 AM,64.9,62.1,90,30.08,10.0,South,4.6,-,N/A,,Clear,190,2013-12-06 05:35:00
12:55 AM,65.3,62.2,90,30.08,10.0,South,6.9,-,N/A,,Clear,190,2013-12-06 05:55:00
1:15 AM,65.3,62.2,90,30.08,10.0,South,5.8,-,N/A,,Scattered Clouds,190,2013-12-06 06:15:00
1:35 AM,64.9,61.9,90,30.07,10.0,South,5.8,-,N/A,,Clear,180,2013-12-06 06:35:00
1:55 AM,64.9,62.1,90,30.06,10.0,South,5.8,-,N/A,,Mostly Cloudy,180,2013-12-06 06:55:00
2:15 AM,65.3,62.2,90,30.06,10.0,South,8.1,-,N/A,,Mostly Cloudy,190,2013-12-06 07:15:00
6:35 AM,68.0,64.4,88,30.07,10.0,SSW,12.7,19.6,N/A,,Clear,200,2013-12-06 11:35:00
6:55 AM,67.3,64.4,90,30.08,10.0,SSW,10.4,-,N/A,,Clear,210,2013-12-06 11:55:00
7:15 AM,67.1,64.4,91,30.08,10.0,SSW,10.4,16.1,N/A,,Clear,210,2013-12-06 12:15:00
7:35 AM,67.3,64.4,90,30.09,10.0,SSW,11.5,16.1,N/A,,Clear,200,2013-12-06 12:35:00
7:55 AM,67.8,64.4,89,30.09,10.0,SSW,13.8,-,N/A,,Clear,210,2013-12-06 12:55:00
8:15 AM,68.9,64.4,86,30.10,10.0,SSW,10.4,-,N/A,,Clear,200,2013-12-06 13:15:00
8:35 AM,69.6,64.6,84,30.10,10.0,SSW,11.5,-,N/A,,Clear,200,2013-12-06 13:35:00
8:55 AM,70.9,64.4,80,30.11,10.0,SSW,17.3,-,N/A,,Clear,200,2013-12-06 13:55:00
9:15 AM,70.7,64.4,80,30.12,10.0,SSW,13.8,21.9,N/A,,Clear,210,2013-12-06 14:15:00
9:35 AM,72.1,64.6,77,30.12,10.0,SSW,16.1,19.6,N/A,,Clear,210,2013-12-06 14:35:00
9:55 AM,73.0,64.8,75,30.12,10.0,SSW,10.4,16.1,N/A,,Clear,210,2013-12-06 14:55:00
10:15 AM,75.0,64.8,70,30.13,10.0,SSW,16.1,21.9,N/A,,Clear,200,2013-12-06 15:15:00
10:35 AM,75.7,64.4,68,30.12,10.0,SSW,13.8,23.0,N/A,,Scattered Clouds,210,2013-12-06 15:35:00
10:55 AM,76.6,64.0,65,30.12,10.0,SSW,15.0,26.5,N/A,,Mostly Cloudy,210,2013-12-06 15:55:00
11:15 AM,77.4,63.7,63,30.11,10.0,SW,21.9,27.6,N/A,,Mostly Cloudy,220,2013-12-06 16:15:00
11:35 AM,77.2,63.7,63,30.11,10.0,SSW,17.3,29.9,N/A,,Scattered Clouds,210,2013-12-06 16:35:00
11:55 AM,77.9,64.0,62,30.09,10.0,SW,13.8,23.0,N/A,,Scattered Clouds,220,2013-12-06 16:55:00
12:15 PM,77.9,63.5,61,30.09,10.0,SW,19.6,25.3,N/A,,Scattered Clouds,220,2013-12-06 17:15:00
12:35 PM,78.6,64.0,61,30.08,10.0,SSW,13.8,24.2,N/A,,Scattered Clouds,200,2013-12-06 17:35:00
12:55 PM,79.2,64.0,60,30.07,10.0,SSW,18.4,25.3,N/A,,Scattered Clouds,200,2013-12-06 17:55:00
1:15 PM,80.2,64.2,58,30.06,10.0,SSW,17.3,24.2,N/A,,Scattered Clouds,200,2013-12-06 18:15:00
1:35 PM,79.2,64.0,60,30.05,10.0,SSW,11.5,20.7,N/A,,Mostly Cloudy,210,2013-12-06 18:35:00
1:55 PM,79.7,63.7,58,30.04,10.0,SSW,12.7,20.7,N/A,,Mostly Cloudy,200,2013-12-06 18:55:00
2:15 PM,79.2,63.0,57,30.03,10.0,SSW,15.0,21.9,N/A,,Scattered Clouds,210,2013-12-06 19:15:00
2:35 PM,78.4,62.6,58,30.03,10.0,South,13.8,24.2,N/A,,Clear,190,2013-12-06 19:35:00
2:55 PM,78.8,62.4,57,30.02,10.0,SSW,13.8,20.7,N/A,,Clear,200,2013-12-06 19:55:00
3:15 PM,78.3,63.1,60,30.02,10.0,South,13.8,20.7,N/A,,Clear,190,2013-12-06 20:15:00
3:35 PM,78.8,62.8,58,30.02,10.0,South,11.5,18.4,N/A,,Clear,190,2013-12-06 20:35:00
3:55 PM,77.4,62.2,59,30.02,10.0,SSW,13.8,23.0,N/A,,Clear,210,2013-12-06 20:55:00
4:15 PM,76.6,62.6,62,30.03,10.0,SSW,12.7,20.7,N/A,,Clear,200,2013-12-06 21:15:00
4:35 PM,75.6,63.5,66,30.03,10.0,South,9.2,-,N/A,,Clear,190,2013-12-06 21:35:00
4:55 PM,74.7,64.4,70,30.03,10.0,South,8.1,-,N/A,,Clear,190,2013-12-06 21:55:00
5:15 PM,73.9,64.4,72,30.03,10.0,South,8.1,-,N/A,,Clear,190,2013-12-06 22:15:00
5:35 PM,73.0,64.4,74,30.03,10.0,South,8.1,-,N/A,,Clear,180,2013-12-06 22:35:00
5:55 PM,72.9,64.8,76,30.03,10.0,South,9.2,-,N/A,,Clear,180,2013-12-06 22:55:00
6:35 PM,71.8,64.0,77,30.04,10.0,South,10.4,-,N/A,,Clear,190,2013-12-06 23:35:00
6:55 PM,71.6,64.4,78,30.04,10.0,South,11.5,-,N/A,,Clear,190,2013-12-06 23:55:00
7:15 PM,71.1,64.6,80,30.05,10.0,South,9.2,-,N/A,,Clear,190,2013-12-07 00:15:00
7:35 PM,70.7,64.8,81,30.04,10.0,South,9.2,-,N/A,,Clear,190,2013-12-07 00:35:00
7:55 PM,70.3,64.8,82,30.04,10.0,South,10.4,-,N/A,,Clear,180,2013-12-07 00:55:00
8:15 PM,70.0,64.8,83,30.04,10.0,South,11.5,20.7,N/A,,Clear,180,2013-12-07 01:15:00
8:35 PM,70.0,64.6,83,30.04,10.0,South,10.4,16.1,N/A,,Clear,190,2013-12-07 01:35:00
8:55 PM,69.8,64.4,83,30.05,10.0,SSW,9.2,17.3,N/A,,Clear,200,2013-12-07 01:55:00
9:15 PM,69.1,64.4,85,30.05,10.0,South,10.4,-,N/A,,Clear,190,2013-12-07 02:15:00
9:35 PM,68.9,64.8,87,30.04,10.0,South,10.4,-,N/A,,Clear,190,2013-12-07 02:35:00
9:55 PM,68.5,64.9,88,30.04,10.0,South,9.2,-,N/A,,Clear,190,2013-12-07 02:55:00
10:15 PM,68.5,64.9,88,30.05,10.0,South,10.4,-,N/A,,Clear,190,2013-12-07 03:15:00
10:35 PM,68.5,64.9,88,30.05,10.0,SSW,10.4,-,N/A,,Clear,200,2013-12-07 03:35:00
10:55 PM,68.5,64.8,88,30.05,10.0,SSW,10.4,-,N/A,,Clear,200,2013-12-07 03:55:00
11:15 PM,68.9,64.8,87,30.05,10.0,South,11.5,18.4,N/A,,Clear,190,2013-12-07 04:15:00
11:35 PM,68.9,64.9,87,30.05,10.0,South,11.5,18.4,N/A,,Clear,190,2013-12-07 04:35:00
11:55 PM,68.9,64.9,87,30.05,10.0,SSW,9.2,16.1,N/A,,Clear,200,2013-12-07 04:55:00